Westfield, MA

10:08 PM EST on January 23, 2018 (GMT -0500)
Barnes Municipal

Weather History for KBAF - March, 2014

Change the Weather History Date:

Wednesday, March 19, 2014

  Actual Average Record
Temperature  
Mean Temperature 32 °F -  
Max Temperature 46 °F 42 °F 79 °F (2012)
Min Temperature 19 °F 24 °F 15 °F (2015)
Degree Days  
Heating Degree Days 32    
Moisture  
Dew Point 20 °F    
Average Humidity 63    
Maximum Humidity 92    
Minimum Humidity 22    
Precipitation  
Precipitation 0.29 in - - ()
Sea Level Pressure  
Sea Level Pressure 30.18 in    
Wind  
Wind Speed 3 mph (ESE)    
Max Wind Speed 13 mph    
Max Gust Speed -    
Visibility 8 miles    
Events Rain    
Averages and records for this station are not official NWS values.
T = Trace of Precipitation, MM = Missing Value Source: NWS Daily Summary

Daily Weather History Graph

Daily Weather History Graph

Search for Another Location

Airport or City:

Trip Planner

Search our weather history database for the weather conditions in past years. The results will help you decide how hot, cold, wet, or windy it might be!

Date:

Astronomy

Mar. 19, 2014 Rise Set
Actual Time 6:55 AM EDT 7:01 PM EDT
Civil Twilight 6:28 AM EDT 7:29 PM EDT
Nautical Twilight 5:55 AM EDT 8:02 PM EDT
Astronomical Twilight 5:22 AM EDT 8:35 PM EDT
Moon 10:21 PM EDT (3/19) 8:16 AM EDT (3/19)
Length of Visible Light 13h 01m
Length of Day
12h 06m
Waning Gibbous, 91% of the Moon is Illuminated
Mar 19
Waning Gibbous
Mar 23
Last Quarter
Mar 30
New
Apr 7
First Quarter
Apr 15
Full

Hourly Weather History & Observations

Time (EDT) Temp. Windchill Dew Point Humidity Pressure Visibility Wind Dir Wind Speed Gust Speed Precip Events Conditions
12:53 AM 24.1 °F - 17.1 °F 75% 30.32 in 10.0 mi Calm Calm - N/A   Clear
1:53 AM 24.1 °F - 16.0 °F 71% 30.32 in 10.0 mi Calm Calm - N/A   Clear
2:53 AM 23.0 °F - 15.1 °F 72% 30.31 in 10.0 mi Calm Calm - N/A   Clear
3:53 AM 19.9 °F - 15.1 °F 81% 30.32 in 10.0 mi Calm Calm - N/A   Clear
4:53 AM 19.9 °F - 15.1 °F 81% 30.33 in 10.0 mi Calm Calm - N/A   Clear
5:53 AM 19.0 °F 13.9 °F 15.1 °F 85% 30.35 in 10.0 mi East 3.5 mph - N/A   Clear
6:53 AM 19.0 °F - 15.1 °F 85% 30.38 in 10.0 mi Calm Calm - N/A   Clear
7:53 AM 21.9 °F - 16.0 °F 78% 30.38 in 10.0 mi Calm Calm - N/A   Clear
8:53 AM 28.9 °F - 17.1 °F 61% 30.37 in 10.0 mi Calm Calm - N/A   Clear
9:53 AM 30.9 °F 27.5 °F 18.0 °F 59% 30.35 in 10.0 mi NW 3.5 mph - N/A   Mostly Cloudy
10:53 AM 33.1 °F 28.7 °F 19.0 °F 56% 30.33 in 10.0 mi North 4.6 mph - N/A   Overcast
11:53 AM 35.1 °F - 19.9 °F 54% 30.30 in 10.0 mi Calm Calm - N/A   Overcast
12:53 PM 39.0 °F 34.0 °F 19.0 °F 45% 30.26 in 10.0 mi Variable 6.9 mph - N/A   Overcast
1:53 PM 39.9 °F 35.8 °F 18.0 °F 41% 30.23 in 10.0 mi Variable 5.8 mph - N/A   Overcast
2:53 PM 42.1 °F 37.1 °F 17.1 °F 37% 30.19 in 10.0 mi South 8.1 mph - 0.00 in   Overcast
3:53 PM 45.0 °F 40.1 °F 15.1 °F 30% 30.15 in 10.0 mi ESE 9.2 mph - N/A   Overcast
4:53 PM 46.9 °F - 10.0 °F 22% 30.10 in 10.0 mi SSE 12.7 mph - N/A   Overcast
5:53 PM 44.1 °F 38.1 °F 12.9 °F 28% 30.09 in 10.0 mi SSE 11.5 mph - 0.00 in Rain Light Rain
6:53 PM 42.1 °F 36.6 °F 18.0 °F 38% 30.09 in 10.0 mi South 9.2 mph - 0.00 in Rain Light Rain
7:31 PM 39.9 °F 36.7 °F 19.0 °F 43% 30.06 in 4.0 mi SSE 4.6 mph - 0.00 in Rain Light Rain
7:53 PM 39.0 °F 36.8 °F 23.0 °F 53% 30.08 in 4.0 mi ESE 3.5 mph - 0.00 in Rain Light Rain
7:55 PM 37.9 °F 35.5 °F 24.1 °F 57% 30.05 in 5.0 mi East 3.5 mph - 0.00 in Rain Light Rain
8:53 PM 39.0 °F 34.0 °F 23.0 °F 53% 30.09 in 5.0 mi SW 6.9 mph - 0.00 in Rain Light Rain
9:03 PM 37.0 °F - 26.1 °F 65% 30.05 in 2.5 mi Calm Calm - 0.01 in Rain Light Rain
9:34 PM 35.1 °F 31.0 °F 28.9 °F 78% 30.01 in 2.5 mi ENE 4.6 mph - 0.07 in Rain Light Rain
9:53 PM 35.1 °F - 28.9 °F 78% 30.03 in 2.5 mi Calm Calm - 0.07 in Rain Light Rain
10:00 PM 34.0 °F - 30.0 °F 85% 30.00 in 6.0 mi Calm Calm - 0.00 in Rain Light Rain
10:53 PM 33.1 °F 28.7 °F 30.9 °F 92% 29.99 in 5.0 mi North 4.6 mph - 0.06 in Rain Rain
11:41 PM 33.1 °F 26.9 °F 30.9 °F 92% 29.96 in 4.0 mi North 6.9 mph - 0.12 in Rain Rain
11:53 PM 33.1 °F 26.1 °F 30.9 °F 92% 29.98 in 4.0 mi NNW 8.1 mph - 0.16 in Rain Rain